Tracking 19717 objects as of 25-Jun-2019
HD Live streaming from Space Station
objects crossing your sky now

METEOR 1-10 DEB

Track METEOR 1-10 DEB now!
10-day predictions


NORAD ID: 8826
Int'l Code: 1971-120C
Perigee: 701.7 km
Apogee: 719.4 km
Inclination: 81.2 °
Period: 98.8 minutes
Semi major axis: 7081 km
RCS: 0.6193 m2 (medium)
Launch date: December 29, 1971
Source: Commonwealth of Independent States (former USSR) (CIS)
Launch site: PLESETSK MISSILE AND SPACE COMPLEX (PKMTR)

Note: This is SATELLITE DEBRIS
aabbcc
Your satellite tracking list
Your tracking list is empty




NASA's NSSDC Master Catalog

Two Line Element Set (TLE):
1  8826U 71120C   19176.00427980  .00000363  00000-0  77535-4 0  9992
2  8826  81.2358 134.5185 0012487  57.1335 303.1062 14.56846243477372
Source of the keplerian elements: AFSPC